DMSP 5D-2 F13 DEB, 40473

Orbit data source: Space-Track

DMSP 5D-2 F13 DEB, 40473 is space debris in SSO originally from a launch on Fri, 24 Mar 1995 UTC launched from the Air Force Western Test Range (AFWTR). Debris objects in space refer to the collection of defunct objects orbiting the Earth. Examples of debris include non-operational satellites, rocket bodies, and fragments generated from explosions, collisions, or faulty payload assembly.

Loading next visibility...
Identifier
40473, 1995-015BR
Orbit
SSO
Country
Flag of USUS
Related business
Manufacturer
Unknown
Mission
Spacecraft
Bus & Motor
Unknown
Mass
Unknown
Launch date (UTC)
1995-03-24 (30 years ago)
Launch vehicle
Unknown
Launch site
Air Force Western Test Range (AFWTR)
Object type
Payload
Rocket body
Debris
Shape & HBR
Unknown
Radar Cross Section
Small (<0.1 m²)

Expand to show TLE details & history
Last TLE update: 3 days ago

TLE from 3 days ago
0 DMSP 5D-2 F13 DEB
1 40473U 95015BR  25255.85385277  .00001297  00000-0  87439-3 0  9995
2 40473  98.7317 106.6408 0123608  67.1645 294.2519 13.98540538533772
Epoch: 2025-09-12T20:29Z
TLE epoch observation values (Epoch: 2025-09-12T20:29:32.879Z)
Latitude
-0°
Longitude
167.15821°
Altitude
865.716 km
Speed
7.438 km/s
True Right ascension
07h 06m 33s
True Declination
0° 00' 00"
Sunlit
Object was in daylight at epoch
Visualization orbit readout
Latitude
Unknown
Longitude
Unknown
Altitude
Unknown
Speed
Unknown
Apparent Right ascension
Unknown
Apparent Declination
Unknown
Sunlit
N/A
Visualization observer readout
Local Sidereal Time
07:48:04
Azimuth
Unknown
Elevation
Unknown
Doppler factor
Unknown
Orbital elements
Apogee altitude
985.956 km
Perigee altitude
806.127 km
Semi-major axis
7,274.178 km
Eccentricity
0.01236
Inclination
98.7317°
RAAN
106.6408°
Arg. of periapsis
67.1645°
True anomaly
292.95233°
Mean anomaly
294.2519°
Eccentric anomaly
293.60293°
Mean motion
3.49838 °/min
Orbital period
102.9 mins
BSTAR
0.00087439
Loading maneuver chart data...
Computing Atmospheric mass density...

Documentation

Showing up to 5 results
|